sat.trackr.live / text

‹ back to catalog

STARLINK-1549

NORAD 46074 · 2020-055AZ

PAYLOAD ACTIVE UNKNOWN

§ Identity

Operator
Country
US
Launch date
2020-08-07
Launch site
AFETR
Launch vehicle
Mass (kg)
RCS (m²)

Purposes: comms

External: N2YO · Heavens-Above · Gunter

§ Orbital elements

Epoch: 2026-05-25T03:21:46.187424Z

Period
94.23 min
Inclination
53.0512°
Eccentricity
0.0004131
Mean motion
15.28131689 rev/d
Perigee alt
478.6 km
Apogee alt
484.2 km
Semi-major
6,859.5 km
B*
1.4333e-3
RAAN
106.1981°
Arg perigee
61.3624°
Mean anomaly
298.7790°
Rev number
32,092

§ Raw data

STARLINK-15491 46074U 20055AZ  26145.14011791  .00039706  00000+0  14333-2 0  99952 46074  53.0512 106.1981 0004131  61.3624 298.7790 15.28131689320928

JSON: /api/v1/satellites/46074 · /tle

For live sub-satellite position, see the globe view (requires WebGL).

§ Visibility from observer

Set your observer location to see the next 7 days of passes ≥ 10°. The values pass through the URL so the page stays shareable.

No JS? Fill the form by hand. The geolocation button needs JavaScript.